Date String (YYYY-MM-DD hh:mm:ss) UTC,Instrument flags,absolute air pressure of the measurement (hPa),sample flow rate (lpm),inlet stack bypass flow (lpm),air temperature of the measurement (°C),ambient temperature measured by the external sensor (°C),aerosol sample conditioner tube jacket temperature (°C),OPC LED temperature (°C),internal box temperature (°C),relative humidity of the measurement (%),span deviation,mass concentration of particles derived from Lorenz-Mie calculation of OPC scattering (μg/m³),mass concentration of particles derived from Lorenz-Mie calculation of OPC scattering (μg/m³),mass concentration of particles derived from Lorenz-Mie calculation of OPC scattering (μg/m³)
DateTimeUTC,F1_M11,P_M11,Q1_M11,Q2_M11,T1_M11,T2_M11,T3_M11,T4_M11,T5_M11,U1_M11,ZSPAN_M11,X0_M11,X2_M11,X1_M11
2024-03-29 02:00:00,SystemResetWarning,0820.5,4.99,000.00,024.1,023.1,000.0,032.7,025.9,12.3,0000.0,0007.28,0003.00,0001.81
2024-03-29 02:01:00,SystemResetWarning,0820.6,4.99,000.00,024.0,023.1,000.0,032.7,025.9,12.5,0000.0,0007.20,0002.95,0001.82
2024-03-29 02:02:00,SystemResetWarning,0820.6,5.00,000.00,024.0,023.1,000.0,032.7,025.9,12.4,0000.0,0007.42,0002.95,0001.81
2024-03-29 02:03:00,SystemResetWarning,0820.6,5.01,000.00,024.0,023.1,000.0,032.7,025.9,12.5,0000.0,0008.09,0002.92,0001.81
2024-03-29 02:04:00,SystemResetWarning,0820.7,5.01,000.00,024.0,023.1,000.0,032.7,025.9,12.5,0000.0,0008.18,0002.93,0001.80
2024-03-29 02:05:00,SystemResetWarning,0820.7,5.01,000.00,024.0,023.1,000.0,032.7,025.9,12.5,0000.0,0008.31,0003.02,0001.81
2024-03-29 02:06:00,SystemResetWarning,0820.8,5.00,000.00,024.0,023.1,000.0,032.7,025.9,12.6,0000.0,0008.39,0003.08,0001.80
2024-03-29 02:07:00,SystemResetWarning,0820.8,5.00,000.00,024.0,023.1,000.0,032.7,025.9,12.6,0000.0,0007.53,0003.03,0001.79
2024-03-29 02:08:00,SystemResetWarning,0820.8,5.00,000.00,024.0,023.1,000.0,032.7,025.9,12.5,0000.0,0007.40,0003.06,0001.79
2024-03-29 02:09:00,SystemResetWarning,0820.8,5.00,000.00,024.0,023.1,000.0,032.7,025.9,12.5,0000.0,0007.53,0003.12,0001.79
2024-03-29 02:10:00,SystemResetWarning,0820.8,5.00,000.00,024.0,023.1,000.0,032.7,025.9,12.5,0000.0,0007.53,0003.13,0001.80
2024-03-29 02:11:00,SystemResetWarning,0820.8,5.00,000.00,024.0,023.1,000.0,032.7,025.9,12.4,0000.0,0007.61,0003.16,0001.81
2024-03-29 02:12:00,SystemResetWarning,0820.8,5.00,000.00,024.0,023.1,000.0,032.7,025.9,12.5,0000.0,0007.64,0003.18,0001.81
2024-03-29 02:13:00,SystemResetWarning,0820.8,5.00,000.00,024.0,023.1,000.0,032.6,025.9,12.5,0000.0,0007.53,0003.15,0001.82
2024-03-29 02:14:00,SystemResetWarning,0820.8,5.00,000.00,024.0,023.1,000.0,032.6,025.8,12.6,0000.0,0007.09,0003.16,0001.83
2024-03-29 02:15:00,SystemResetWarning,0820.8,5.00,000.00,024.0,023.0,000.0,032.6,025.7,12.5,0000.0,0007.24,0003.18,0001.85
2024-03-29 02:16:00,SystemResetWarning,0821.2,5.00,000.00,023.9,023.0,000.0,032.6,025.7,12.5,0000.0,0007.24,0003.18,0001.85
2024-03-29 02:17:00,SystemResetWarning,0821.0,5.01,000.00,023.9,023.0,000.0,032.6,025.7,12.7,0000.0,0006.94,0003.12,0001.86
2024-03-29 02:18:00,SystemResetWarning,0821.0,5.01,000.00,023.9,023.0,000.0,032.6,025.7,12.5,0000.0,0007.01,0003.14,0001.89
2024-03-29 02:19:00,SystemResetWarning,0821.1,5.01,000.00,023.9,023.0,000.0,032.6,025.7,12.6,0000.0,0007.14,0003.13,0001.88
2024-03-29 02:20:00,SystemResetWarning,0821.1,5.00,000.00,023.9,023.0,000.0,032.6,025.7,12.6,0000.0,0007.14,0003.12,0001.88
2024-03-29 02:21:00,SystemResetWarning,0821.1,5.00,000.00,023.9,023.0,000.0,032.6,025.7,12.6,0000.0,0007.07,0003.10,0001.88
2024-03-29 02:22:00,SystemResetWarning,0821.1,5.00,000.00,023.9,023.0,000.0,032.6,025.7,12.6,0000.0,0007.10,0003.10,0001.88
2024-03-29 02:23:00,SystemResetWarning,0821.1,5.00,000.00,023.9,022.9,000.0,032.6,025.7,12.6,0000.0,0008.10,0003.11,0001.87
2024-03-29 02:24:00,SystemResetWarning,0821.0,4.99,000.00,023.9,022.9,000.0,032.6,025.7,12.5,0000.0,0008.32,0003.12,0001.87
2024-03-29 02:25:00,SystemResetWarning,0821.1,5.00,000.00,023.9,022.9,000.0,032.5,025.7,12.5,0000.0,0007.81,0003.09,0001.87
2024-03-29 02:26:00,SystemResetWarning,0821.1,5.00,000.00,023.9,022.9,000.0,032.5,025.7,12.5,0000.0,0007.70,0003.11,0001.88
2024-03-29 02:27:00,SystemResetWarning,0821.1,5.00,000.00,023.9,022.9,000.0,032.5,025.7,12.5,0000.0,0008.08,0003.14,0001.89
2024-03-29 02:28:00,SystemResetWarning,0821.1,5.00,000.00,023.9,022.9,000.0,032.5,025.7,12.4,0000.0,0008.23,0003.13,0001.89
2024-03-29 02:29:00,SystemResetWarning,0821.1,5.00,000.00,023.9,022.9,000.0,032.5,025.7,12.5,0000.0,0008.23,0003.12,0001.88
2024-03-29 02:30:00,SystemResetWarning,0821.1,5.01,000.00,023.8,022.9,000.0,032.5,025.6,12.4,0000.0,0008.10,0003.11,0001.88
2024-03-29 02:31:00,SystemResetWarning,0821.1,5.01,000.00,023.8,022.9,000.0,032.5,025.6,12.4,0000.0,0008.02,0003.11,0001.89
2024-03-29 02:32:00,SystemResetWarning,0821.1,4.99,000.00,023.8,022.9,000.0,032.5,025.6,12.2,0000.0,0007.95,0003.04,0001.87
2024-03-29 02:33:00,SystemResetWarning,0821.1,4.99,000.00,023.8,022.9,000.0,032.5,025.6,12.1,0000.0,0007.84,0002.99,0001.85
2024-03-29 02:34:00,SystemResetWarning,0821.1,5.00,000.00,023.8,022.9,000.0,032.5,025.6,12.2,0000.0,0006.58,0002.96,0001.84
2024-03-29 02:35:00,SystemResetWarning,0821.1,5.01,000.00,023.8,022.8,000.0,032.5,025.6,12.1,0000.0,0006.26,0002.92,0001.83
2024-03-29 02:36:00,SystemResetWarning,0821.1,5.01,000.00,023.8,022.8,000.0,032.5,025.6,12.2,0000.0,0006.41,0002.93,0001.83
2024-03-29 02:37:00,SystemResetWarning,0821.1,4.99,000.00,023.8,022.8,000.0,032.5,025.6,12.0,0000.0,0006.23,0002.87,0001.82
2024-03-29 02:38:00,SystemResetWarning,0821.2,5.00,000.00,023.8,022.8,000.0,032.4,025.6,12.0,0000.0,0005.53,0002.77,0001.79
2024-03-29 02:39:00,SystemResetWarning,0821.2,5.00,000.00,023.8,022.8,000.0,032.4,025.5,11.9,0000.0,0005.21,0002.81,0001.78
2024-03-29 02:40:00,SystemResetWarning,0821.1,5.01,000.00,023.7,022.8,000.0,032.4,025.5,11.9,0000.0,0005.27,0002.82,0001.77
2024-03-29 02:41:00,SystemResetWarning,0821.2,5.02,000.00,023.7,022.8,000.0,032.4,025.5,11.9,0000.0,0006.40,0002.88,0001.77
2024-03-29 02:42:00,SystemResetWarning,0821.2,4.99,000.00,023.7,022.8,000.0,032.4,025.5,11.9,0000.0,0006.65,0002.92,0001.76
2024-03-29 02:43:00,SystemResetWarning,0821.1,4.99,000.00,023.7,022.8,000.0,032.4,025.5,11.8,0000.0,0006.65,0002.88,0001.73
2024-03-29 02:44:00,SystemResetWarning,0821.1,4.99,000.00,023.7,022.7,000.0,032.4,025.5,11.7,0000.0,0006.87,0002.96,0001.73
2024-03-29 02:45:00,SystemResetWarning,0821.2,5.02,000.00,023.7,022.7,000.0,032.4,025.5,11.7,0000.0,0006.93,0002.94,0001.72
2024-03-29 02:46:00,SystemResetWarning,0821.2,5.00,000.00,023.7,022.7,000.0,032.4,025.5,11.6,0000.0,0006.94,0002.95,0001.73
2024-03-29 02:47:00,SystemResetWarning,0821.2,4.99,000.00,023.7,022.6,000.0,032.3,025.5,11.6,0000.0,0006.83,0002.97,0001.71
2024-03-29 02:48:00,SystemResetWarning,0821.2,4.99,000.00,023.6,022.6,000.0,032.3,025.5,11.6,0000.0,0007.15,0003.03,0001.70
2024-03-29 02:49:00,SystemResetWarning,0821.2,5.00,000.00,023.6,022.6,000.0,032.3,025.5,11.6,0000.0,0007.30,0003.05,0001.69
2024-03-29 02:50:00,SystemResetWarning,0821.2,5.01,000.00,023.6,022.6,000.0,032.3,025.4,11.6,0000.0,0007.21,0003.02,0001.69
2024-03-29 02:51:00,SystemResetWarning,0821.2,5.01,000.00,023.6,022.6,000.0,032.3,025.4,11.6,0000.0,0007.23,0003.02,0001.68
2024-03-29 02:52:00,SystemResetWarning,0821.2,5.00,000.00,023.6,022.5,000.0,032.3,025.4,11.7,0000.0,0006.89,0003.04,0001.67
2024-03-29 02:53:00,SystemResetWarning,0821.2,5.00,000.00,023.6,022.5,000.0,032.3,025.4,11.7,0000.0,0006.09,0002.95,0001.66
2024-03-29 02:54:00,SystemResetWarning,0821.2,4.99,000.00,023.5,022.5,000.0,032.3,025.4,11.6,0000.0,0005.83,0002.91,0001.67
2024-03-29 02:55:00,SystemResetWarning,0821.2,5.00,000.00,023.5,022.5,000.0,032.2,025.3,11.6,0000.0,0005.55,0002.83,0001.68
2024-03-29 02:56:00,SystemResetWarning,0821.2,5.00,000.00,023.5,022.5,000.0,032.2,025.3,11.8,0000.0,0005.45,0002.85,0001.69
2024-03-29 02:57:00,SystemResetWarning,0821.2,5.01,000.00,023.5,022.5,000.0,032.2,025.3,11.8,0000.0,0005.54,0002.89,0001.70
2024-03-29 02:58:00,SystemResetWarning,0821.2,5.01,000.00,023.5,022.5,000.0,032.2,025.3,11.8,0000.0,0005.40,0002.86,0001.72
2024-03-29 02:59:00,SystemResetWarning,0821.2,5.00,000.00,023.5,022.4,000.0,032.2,025.3,11.8,0000.0,0005.20,0002.81,0001.73
